This is the latest recevied weather packets stored in our database for station/object KB9PMA-1. If no packets are shown the sender has not sent any weather packets the latest 1 day(s).
| Time | Temp. | Humidity | Pressure | Rain* | Wind** | Luminosity | Snow |
|---|---|---|---|---|---|---|---|
| 1778043175 | 7.22° C | 95% | 1011.9 hPa | 2.29 mm | - | - | - |
| 1778042875 | 7.22° C | 96% | 1011.8 hPa | 2.54 mm | - | - | - |
| 1778042575 | 7.22° C | 95% | 1011.7 hPa | 2.79 mm | - | - | - |
| 1778042275 | 7.78° C | 96% | 1011.5 hPa | 3.3 mm | - | - | - |
| 1778041975 | 7.78° C | 96% | 1011.4 hPa | 3.3 mm | - | - | - |
| 1778041675 | 7.78° C | 96% | 1011.2 hPa | 3.05 mm | - | - | - |
| 1778041375 | 7.78° C | 96% | 1011.2 hPa | 3.56 mm | - | - | - |
| 1778041075 | 7.78° C | 96% | 1011.1 hPa | 3.56 mm | - | - | - |
| 1778040775 | 7.78° C | 96% | 1011.1 hPa | 3.3 mm | - | - | - |
| 1778040475 | 7.78° C | 96% | 1011.3 hPa | 3.3 mm | - | - | - |
| 1778039875 | 8.33° C | 96% | 1011.3 hPa | 3.3 mm | - | - | - |
| 1778039575 | 8.33° C | 96% | 1011.3 hPa | 3.56 mm | - | - | - |
| 1778039275 | 8.33° C | 96% | 1011.4 hPa | 3.56 mm | - | - | - |
| 1778038975 | 8.33° C | 96% | 1011.4 hPa | 3.56 mm | - | - | - |
| 1778038675 | 8.33° C | 96% | 1011.3 hPa | 3.56 mm | - | - | - |
| 1778038075 | 8.33° C | 96% | 1011.2 hPa | 3.81 mm | - | - | - |
| 1778037775 | 8.89° C | 96% | 1011.1 hPa | 3.3 mm | - | - | - |
| 1778037175 | 8.33° C | 96% | 1010.9 hPa | 3.56 mm | - | - | - |
| 1778036875 | 8.89° C | 96% | 1011.1 hPa | 3.56 mm | - | - | - |
| 1778036275 | 8.89° C | 96% | 1010.9 hPa | 3.3 mm | - | - | - |
| 1778035975 | 8.89° C | 96% | 1011 hPa | 2.79 mm | - | - | - |
| 1778035075 | 8.89° C | 96% | 1011 hPa | 2.29 mm | - | - | - |
| 1778034475 | 8.89° C | 96% | 1011 hPa | 2.03 mm | - | - | - |
| 1778034175 | 8.33° C | 96% | 1010.7 hPa | 2.29 mm | - | - | - |
| 1778033875 | 8.33° C | 96% | 1010.6 hPa | 2.29 mm | - | - | - |
* Rain latest hour (hover to see other rain measurements)
** Current wind speed in m/s (hover to see current wind gust speed)